Tillbaka till svenska Fidonet
English   Information   Debug  
FILM   0/18
FNEWS_PUBLISH   4708
FN_SYSOP   42000
FN_SYSOP_OLD1   71952
FTP_FIDO   0/2
FTSC_PUBLIC   0/13896
FUNNY   0/4886
GENEALOGY.EUR   0/71
GET_INFO   105
GOLDED   0/408
HAM   16165/16254
HOLYSMOKE   0/6791
HOT_SITES   0/1
HTMLEDIT   0/71
HUB203   466
HUB_100   264
HUB_400   39
HUMOR   0/29
IC   0/2851
INTERNET   0/424
INTERUSER   0/3
IP_CONNECT   719
JAMNNTPD   0/233
JAMTLAND   0/47
KATTY_KORNER   0/41
LAN   0/16
LINUX-USER   0/19
LINUXHELP   0/1155
LINUX   0/22257
LINUX_BBS   0/957
mail   18.68
mail_fore_ok   249
MENSA   0/341
MODERATOR   0/102
MONTE   0/992
MOSCOW_OKLAHOMA   0/1245
MUFFIN   0/783
MUSIC   0/321
N203_STAT   938
N203_SYSCHAT   313
NET203   321
NET204   69
NET_DEV   0/10
NORD.ADMIN   0/101
NORD.CHAT   0/2572
NORD.FIDONET   189
NORD.HARDWARE   0/28
NORD.KULTUR   0/114
NORD.PROG   0/32
NORD.SOFTWARE   0/88
NORD.TEKNIK   0/58
NORD   0/453
OCCULT_CHAT   0/93
OS2BBS   0/787
OS2DOSBBS   0/580
OS2HW   0/42
OS2INET   0/37
OS2LAN   0/134
OS2PROG   0/36
OS2REXX   0/113
OS2USER-L   207
OS2   0/4806
OSDEBATE   0/18996
PASCAL   0/490
PERL   0/457
PHP   0/45
POINTS   0/405
POLITICS   0/29554
POL_INC   7351/14731
PSION   103
R20_ADMIN   1129
R20_AMATORRADIO   0/2
R20_BEST_OF_FIDONET   14
R20_CHAT   0/893
R20_DEPP   0/3
R20_DEV   399
R20_ECHO2   1623
R20_ECHOPRES   0/35
R20_ESTAT   0/719
R20_FIDONETPROG...
...RAM.MYPOINT
  0/2
R20_FIDONETPROGRAM   0/22
R20_FIDONET   0/248
R20_FILEFIND   0/24
R20_FILEFOUND   0/22
R20_HIFI   0/3
R20_INFO2   3514
R20_INTERNET   0/12940
R20_INTRESSE   0/60
R20_INTR_KOM   0/99
R20_KANDIDAT.CHAT   42
R20_KANDIDAT   28
R20_KOM_DEV   112
R20_KONTROLL   0/13360
R20_KORSET   0/18
R20_LOKALTRAFIK   0/24
R20_MODERATOR   0/1852
R20_NC   76
R20_NET200   245
R20_NETWORK.OTH...
...ERNETS
  0/13
R20_OPERATIVSYS...
...TEM.LINUX
  0/44
R20_PROGRAMVAROR   0/1
R20_REC2NEC   534
R20_SFOSM   0/341
R20_SF   0/108
R20_SPRAK.ENGLISH   0/1
R20_SQUISH   107
R20_TEST   2
R20_WORST_OF_FIDONET   20
RAR   0/9
RA_MULTI   106
RA_UTIL   0/162
REGCON.EUR   0/2066
REGCON   0/13
SCIENCE   0/1206
SF   0/239
SHAREWARE_SUPPORT   0/5146
SHAREWRE   0/14
SIMPSONS   0/169
STATS_OLD1   0/2539.065
STATS_OLD2   0/2530
STATS_OLD3   0/2395.095
STATS_OLD4   1681.25/1692.25
SURVIVOR   0/495
SYSOPS_CORNER   0/3
SYSOP   0/84
TAGLINES   0/112
TEAMOS2   0/4530
TECH   0/2617
TEST.444   0/105
TRAPDOOR   0/19
TREK   0/755
TUB   0/290
UFO   0/40
UNIX   0/1316
USA_EURLINK   0/102
USR_MODEMS   0/1
VATICAN   0/2740
VIETNAM_VETS   0/14
VIRUS   0/378
VIRUS_INFO   0/201
VISUAL_BASIC   0/473
WHITEHOUSE   0/5187
WIN2000   0/101
WIN32   0/30
WIN95   0/4291
WIN95_OLD1   0/70272
WINDOWS   0/1517
WWB_SYSOP   0/419
WWB_TECH   0/810
ZCC-PUBLIC   0/1
ZEC   4

 
4DOS   0/134
ABORTION   0/7
ALASKA_CHAT   0/506
ALLFIX_FILE   0/1313
ALLFIX_FILE_OLD1   0/7997
ALT_DOS   0/152
AMATEUR_RADIO   0/1039
AMIGASALE   0/14
AMIGA   0/331
AMIGA_INT   0/1
AMIGA_PROG   0/20
AMIGA_SYSOP   0/26
ANIME   0/15
ARGUS   0/924
ASCII_ART   0/340
ASIAN_LINK   0/651
ASTRONOMY   0/417
AUDIO   0/92
AUTOMOBILE_RACING   0/105
BABYLON5   0/17862
BAG   135
BATPOWER   0/361
BBBS.ENGLISH   0/382
BBSLAW   0/109
BBS_ADS   0/5290
BBS_INTERNET   0/507
BIBLE   0/3563
BINKD   0/1119
BINKLEY   0/215
BLUEWAVE   0/2173
CABLE_MODEMS   0/25
CBM   0/46
CDRECORD   0/66
CDROM   0/20
CLASSIC_COMPUTER   0/378
COMICS   0/15
CONSPRCY   0/899
COOKING   38957
COOKING_OLD1   0/24719
COOKING_OLD2   0/40862
COOKING_OLD3   0/37489
COOKING_OLD4   0/35496
COOKING_OLD5   9370
C_ECHO   0/189
C_PLUSPLUS   0/31
DIRTY_DOZEN   0/201
DOORGAMES   0/2138
DOS_INTERNET   0/196
duplikat   6101
ECHOLIST   0/18295
EC_SUPPORT   0/318
ELECTRONICS   0/359
ELEKTRONIK.GER   1534
ENET.LINGUISTIC   0/13
ENET.POLITICS   0/4
ENET.SOFT   0/11701
ENET.SYSOP   34187
ENET.TALKS   0/32
ENGLISH_TUTOR   0/2000
EVOLUTION   0/1335
FDECHO   0/217
FDN_ANNOUNCE   0/7068
FIDONEWS   24649
FIDONEWS_OLD1   0/49742
FIDONEWS_OLD2   0/35949
FIDONEWS_OLD3   0/30874
FIDONEWS_OLD4   0/37224
FIDO_SYSOP   12899
FIDO_UTIL   0/180
FILEFIND   0/209
FILEGATE   0/212
Möte HAM, 16254 texter
 lista första sista föregående nästa
Text 2209, 787 rader
Skriven 2008-03-28 00:00:41 av Amsat List (1:323/120.0)
Ärende: [keps]  orb08087.amsa
=============================
[keps]  orb08087.amsa

Return-Path: <keps-bounces@amsat.org>
X-Rcpt: craig.healy@chowda.com
X-UIDL: 1206679521.18334

SB KEPS @ AMSAT  $ORB08087.O
Orbital Elements  08087.OSCAR

HR AMSAT ORBITAL ELEMENTS FOR OSCAR SATELLITES
FROM WA5QGD FORT WORTH,TX March 27, 2008
Send Subscribe/unsubscribe to KEPS at 
http://www.amsat.org/mailman/listinfo/keps
BID: ORB08087.O
TO ALL RADIO AMATEURS BT

Satellite: AO-07
Catalog number: 07530
Epoch time:      08086.69394033
Element set:    0137
Inclination:      101.4767 deg
RA of node:       120.9244 deg
Eccentricity:    0.0012083
Arg of perigee:   064.3556 deg
Mean anomaly:     295.8762 deg
Mean motion:   12.53573699 rev/day
Decay rate:       -2.7e-07 rev/day^2
Epoch rev:           52664
Checksum:              316

Satellite: AO-10
Catalog number: 14129
Epoch time:      08086.68786823
Element set:     487
Inclination:      025.9253 deg
RA of node:       223.5194 deg
Eccentricity:    0.6014113
Arg of perigee:   110.1621 deg
Mean anomaly:     321.5334 deg
Mean motion:   02.05869097 rev/day
Decay rate:       -4.0e-08 rev/day^2
Epoch rev:           18640
Checksum:              290

Satellite: UO-11
Catalog number: 14781
Epoch time:      08086.88607234
Element set:    0630
Inclination:      098.1626 deg
RA of node:       119.6533 deg
Eccentricity:    0.0008660
Arg of perigee:   345.1376 deg
Mean anomaly:     014.9533 deg
Mean motion:   14.79627778 rev/day
Decay rate:       1.15e-06 rev/day^2
Epoch rev:           29168
Checksum:              327

Satellite: RS-15
Catalog number: 23439
Epoch time:      08086.88519857
Element set:    0165
Inclination:      064.8152 deg
RA of node:       268.1378 deg
Eccentricity:    0.0149898
Arg of perigee:   138.4589 deg
Mean anomaly:     222.7839 deg
Mean motion:   11.27552050 rev/day
Decay rate:       -3.9e-07 rev/day^2
Epoch rev:           54568
Checksum:              363

Satellite: FO-29
Catalog number: 24278
Epoch time:      08086.96136206
Element set:    0749
Inclination:      098.5875 deg
RA of node:       014.0057 deg
Eccentricity:    0.0351354
Arg of perigee:   068.4537 deg
Mean anomaly:     295.3667 deg
Mean motion:   13.52936734 rev/day
Decay rate:        4.1e-07 rev/day^2
Epoch rev:           57327
Checksum:              343

Satellite: SO-33
Catalog number: 25509
Epoch time:      08086.29069224
Element set:    0162
Inclination:      031.4303 deg
RA of node:       065.0571 deg
Eccentricity:    0.0354711
Arg of perigee:   022.4231 deg
Mean anomaly:     339.1493 deg
Mean motion:   14.28205915 rev/day
Decay rate:       4.03e-06 rev/day^2
Epoch rev:           49175
Checksum:              277

Satellite: AO-40
Catalog number: 26609
Epoch time:      08086.00615633
Element set:      29
Inclination:      007.4975 deg
RA of node:       091.1418 deg
Eccentricity:    0.7918516
Arg of perigee:   064.9376 deg
Mean anomaly:     354.6858 deg
Mean motion:   01.25584116 rev/day
Decay rate:      -2.99e-06 rev/day^2
Epoch rev:            3399
Checksum:              339

Satellite: VO-52
Catalog number: 28650
Epoch time:      08087.74760167
Element set:     890
Inclination:      097.7954 deg
RA of node:       156.5690 deg
Eccentricity:    0.0028015
Arg of perigee:   048.5116 deg
Mean anomaly:     311.8530 deg
Mean motion:   14.81437450 rev/day
Decay rate:        5.3e-07 rev/day^2
Epoch rev:           15654
Checksum:              318

Satellite: PO-63
Catalog number: 29712
Epoch time:      08087.22205042
Element set:     305
Inclination:      097.8822 deg
RA of node:       146.9241 deg
Eccentricity:    0.0013127
Arg of perigee:   289.9451 deg
Mean anomaly:     070.0346 deg
Mean motion:   14.80070825 rev/day
Decay rate:       5.82e-06 rev/day^2
Epoch rev:            6534
Checksum:              291

/EX
SB KEPS @ AMSAT  $ORB08087.D
Orbital Elements  08087.MICROS

HR AMSAT ORBITAL ELEMENTS FOR THE MICROSATS
FROM WA5QGD FORT WORTH,TX March 27, 2008
Send Subscribe/unsubscribe to KEPS at 
http://www.amsat.org/mailman/listinfo/keps
BID: ORB08087.D
TO ALL RADIO AMATEURS BT

Satellite: AO-16
Catalog number: 20439
Epoch time:      08086.74880638
Element set:     282
Inclination:      098.2241 deg
RA of node:       071.0517 deg
Eccentricity:    0.0011986
Arg of perigee:   063.2278 deg
Mean anomaly:     297.0136 deg
Mean motion:   14.31787994 rev/day
Decay rate:       -1.0e-08 rev/day^2
Epoch rev:           94912
Checksum:              323

Satellite: LO-19
Catalog number: 20442
Epoch time:      08086.94954689
Element set:    0210
Inclination:      098.1976 deg
RA of node:       080.0183 deg
Eccentricity:    0.0012775
Arg of perigee:   062.3217 deg
Mean anomaly:     297.9282 deg
Mean motion:   14.32026627 rev/day
Decay rate:       -5.7e-07 rev/day^2
Epoch rev:           94930
Checksum:              325

Satellite: AO-27
Catalog number: 22825
Epoch time:      08086.94188439
Element set:    0932
Inclination:      098.3749 deg
RA of node:       050.0843 deg
Eccentricity:    0.0008802
Arg of perigee:   138.3261 deg
Mean anomaly:     221.8590 deg
Mean motion:   14.29233163 rev/day
Decay rate:      -1.75e-06 rev/day^2
Epoch rev:           75602
Checksum:              317

Satellite: IO-26
Catalog number: 22826
Epoch time:      08086.80022328
Element set:     633
Inclination:      098.3681 deg
RA of node:       050.8961 deg
Eccentricity:    0.0009443
Arg of perigee:   136.2421 deg
Mean anomaly:     223.9505 deg
Mean motion:   14.29481830 rev/day
Decay rate:       -6.0e-08 rev/day^2
Epoch rev:           75609
Checksum:              302

